Location: ??????????
(44.2167°N, 135.5333°E)
Time: 14:10:25
(UTC+00:00)

Meteor 2-5 Rocket - Pass Details

Date: 15 June 2025
Orbit: 831 x 911 km, 81.2° (Epoch: 15 July)

Event Time Altitude Azimuth Distance (km) Brightness Sun altitude
Exits shadow 14:49:43 47° 171° (S) 1,185 4.0 -22.4°
Maximum altitude 14:51:29 76° 98° (E) 940 3.8 -22.4°
Drops below altitude 10° 14:57:26 10° 13° (NNE) 2,607 7.3 -22.4°
Sets 14:59:55 0° 12° (NNE) 3,550 8.3 -22.4°
